Weather in Iyulskoye

Russia / Udmurt Republic     56°55′08″N   53°36′20″E
temp.,
°C
wind,
m/s
gust,
m/s
humid.,
%
clouds,
%
prec.,
mm/h
press.,
hPa
HPBL,
m
6 march, sat
sat601:00−13wsw369752 0.0 1006115
04:00−13wsw359862 0.1 100882
07:00−13w389697 0.1 1008235
10:00−13nw368884 0.1 1010414
13:00−10wnw358155 0.0 1011794
16:00−10w358478 0.1 1011885
19:00−14w2395100 0.1 101223
22:00−17w239790 0.1 101237
7 march, sun
sun701:00−19wsw229919 0.0 101120
04:00−19wsw129949 0.1 101120
07:00−19sw129993 0.1 101120
10:00−15sw239294 0.1 1010250
13:00−11sw2384100 0.1 1009655
16:00−10ssw3487100 0.2 1008594
19:00−13s3895100 0.1 1007210
22:00−17sse369887 0.1 1007104
8 march, mon
mon801:00−15sse499799 0.0 1003267
04:00−14sse5119599 0.4 1000462
07:00−12sse61294100 1.0 996583
10:00−8sse71293100 1.7 995715
13:00−6sw71087100 0.6 9951019
16:00−6sw6107997 0.6 996963
19:00−9ssw389074 0.0 997226
22:00−10s239787 0.3 99770
9 march, tue
tue901:00−10sw379799 0.1 997219
04:00−12sw379699 0.4 999202
07:00−14wsw359882 0.1 1001104
10:00−12wsw359490 0.1 1003320
13:00−9wsw3490100 0.1 1005506
16:00−9wsw3592100 0.4 1006557
19:00−11w3795100 0.3 1007237
22:00−13w379598 0.3 1008260
10 march, wed
wed1001:00−14n2397100 0.3 100977
04:00−16n3796100 0.6 1011314
07:00−20n249794 0.1 1012114
10:00−18n359291 0.1 1013401
13:00−16n3486100 0.0 1014579
16:00−15nnw3584100 0.1 1014671
19:00−21nnw339397 0.0 101647
22:00−24nnw339548 0.0 101861